Location: Borgo
(42.3939°N, 9.2791°E)
Time: 01:17:07
(UTC+00:00)

Cosmos 2278 Rocket - Pass Details

Date: 24 January 2021
Orbit: 840 x 846 km, 71.0° (Epoch: 08 March)

Event Time Altitude Azimuth Distance (km) Brightness Sun altitude
Rises 19:01:08 0° 214° (SW) 3,387 5.8 -28.4°
Reaches altitude 10° 19:03:36 10° 218° (SW) 2,457 5.0 -28.9°
Maximum altitude 19:09:10 59° 298° (WNW) 976 2.6 -29.9°
Enters shadow 19:10:10 51° 339° (NNW) 1,059 2.7 -30.1°
